Meerawa, Australia

11:32 PM AEST on May 23, 2018 (GMT +1000)
Meerawa

Weather History for 94287 - October, 2012

Change the Weather History Date:

Friday, October 19, 2012

  Actual Average Record
Temperature  
Mean Temperature 76 °F -  
Max Temperature 82 °F 86 °F - ()
Min Temperature 70 °F 71 °F - ()
Cooling Degree Days 11    
Growing Degree Days 26 (Base 50)    
Moisture  
Dew Point 66 °F    
Average Humidity 74    
Maximum Humidity 94    
Minimum Humidity 48    
Precipitation  
Precipitation 0.00 in 0.10 in - ()
Sea Level Pressure  
Sea Level Pressure 29.96 in    
Wind  
Wind Speed 11 mph ()    
Max Wind Speed 24 mph    
Max Gust Speed -    
Visibility 6.4 miles    
Events Rain    
T = Trace of Precipitation, MM = Missing Value Source: Averaged Metar Reports

Daily Weather History Graph

Daily Weather History Graph

Search for Another Location

Airport or City:

Astronomy

Oct. 19, 2012 Rise Set
Actual Time 5:46 AM AEST 6:17 PM AEST
Civil Twilight 5:24 AM AEST 6:39 PM AEST
Nautical Twilight 4:58 AM AEST 7:05 PM AEST
Astronomical Twilight 4:32 AM AEST 7:31 PM AEST
Moon 8:49 AM AEST (10/19) 10:14 PM AEST (10/19)
Length of Visible Light 13h 15m
Length of Day
12h 31m
Waxing Crescent, 18% of the Moon is Illuminated
Oct 19
Waxing Crescent
Oct 22
First Quarter
Oct 30
Full
Nov 7
Last Quarter
Nov 14
New

Hourly Weather History & Observations

Time (AEST) Temp. Heat Index Dew Point Humidity Pressure Visibility Wind Dir Wind Speed Gust Speed Precip Events Conditions
12:00 AM 74 °F - 65 °F 65% 30.01 in - South 8.1 mph - -   Overcast
12:00 AM 73.4 °F - 64.4 °F 73% 30.01 in 6.2 mi South 8.1 mph - N/A   Mostly Cloudy
12:30 AM 73.4 °F - 64.4 °F 73% 29.98 in 6.2 mi South 9.2 mph - N/A   Mostly Cloudy
1:00 AM 74 °F - 64 °F 65% 29.99 in - South 9.2 mph - -  
1:00 AM 73.4 °F - 64.4 °F 73% 29.98 in 6.2 mi South 9.2 mph - N/A   Mostly Cloudy
1:30 AM 71.6 °F - 66.2 °F 83% 29.98 in 6.2 mi SSE 10.4 mph - N/A   Light Drizzle
2:00 AM 71.6 °F - 66.2 °F 83% 29.95 in 6.2 mi South 8.1 mph - N/A   Mostly Cloudy
2:30 AM 73.4 °F - 66.2 °F 78% 29.95 in 6.2 mi South 8.1 mph - N/A   Mostly Cloudy
3:00 AM 73 °F - 65 °F 71% 29.95 in - SSE 8.1 mph - -   Overcast
3:00 AM 73.4 °F - 66.2 °F 78% 29.95 in 6.2 mi SSE 8.1 mph - N/A   Mostly Cloudy
3:30 AM 71.6 °F - 68.0 °F 88% 29.95 in 3.7 mi SE 8.1 mph - N/A Rain Light Rain Showers
3:55 AM 69.8 °F - 68.0 °F 94% 29.95 in 6.2 mi South 6.9 mph - N/A Rain Light Rain Showers
4:00 AM 70 °F - 67 °F 89% 29.95 in - South 5.8 mph - -  
4:00 AM 69.8 °F - 68.0 °F 94% 29.95 in 5.0 mi South 5.8 mph - N/A Rain Light Rain Showers
4:30 AM 69.8 °F - 68.0 °F 94% 29.95 in 6.2 mi South 4.6 mph - N/A Rain Light Rain Showers
4:58 AM 69.8 °F - 66.2 °F 88% 29.95 in 6.2 mi South 9.2 mph - N/A Rain Light Rain Showers
5:30 AM 71.6 °F - 66.2 °F 83% 29.95 in 6.2 mi South 8.1 mph - N/A   Mostly Cloudy
6:00 AM 72 °F - 67 °F 79% 29.95 in 16 mi South 9.2 mph - -   Partly Cloudy
6:00 AM 71.6 °F - 66.2 °F 83% 29.95 in 6.2 mi South 9.2 mph - N/A   Mostly Cloudy
6:30 AM 71.6 °F - 66.2 °F 83% 29.95 in 6.2 mi South 9.2 mph - N/A   Mostly Cloudy
7:00 AM 72 °F - 68 °F 83% 29.97 in - South 6.9 mph - -  
7:00 AM 73.4 °F - 68.0 °F 83% 29.95 in 6.2 mi South 6.9 mph - N/A   Mostly Cloudy
7:30 AM 73.4 °F - 68.0 °F 83% 29.98 in 6.2 mi South 10.4 mph - N/A   Mostly Cloudy
8:00 AM 75.2 °F - 68.0 °F 78% 29.98 in 6.2 mi South 11.5 mph - N/A   Mostly Cloudy
8:30 AM 75.2 °F - 69.8 °F 83% 29.98 in 6.2 mi SSE 13.8 mph - N/A   Mostly Cloudy
9:00 AM 74 °F - 71 °F 86% 29.99 in 9 mi SSE 13.8 mph - - Rain Light Rain Showers
9:00 AM 75.2 °F - 71.6 °F 89% 29.98 in 6.2 mi SSE 13.8 mph - N/A   Mostly Cloudy
9:30 AM 75.2 °F - 71.6 °F 89% 29.98 in 6.2 mi SSE 15.0 mph - N/A   Mostly Cloudy
10:00 AM 77.0 °F - 69.8 °F 78% 29.98 in 6.2 mi SSE 15.0 mph - N/A   Mostly Cloudy
10:19 AM 80.6 °F 83.9 °F 69.8 °F 70% 29.98 in 6.2 mi SSE 17.3 mph - N/A   Mostly Cloudy
10:30 AM 78.8 °F - 69.8 °F 74% 29.98 in 6.2 mi SE 19.6 mph - N/A Rain Light Rain Showers
10:52 AM 78.8 °F - 71.6 °F 78% 29.98 in 6.2 mi SSE 18.4 mph - N/A   Mostly Cloudy
11:00 AM 78.8 °F - 69.8 °F 74% 29.98 in 6.2 mi SSE 18.4 mph - N/A   Mostly Cloudy
11:30 AM 78.8 °F - 69.8 °F 74% 29.98 in 6.2 mi SSE 19.6 mph - N/A Rain Light Rain Showers
12:00 PM 76 °F - 71 °F 82% 29.97 in 6 mi SE 17.3 mph - - Rain Light Rain Showers
12:00 PM 77.0 °F - 71.6 °F 83% 29.95 in 6.2 mi SE 17.3 mph - N/A Rain Light Rain Showers
12:30 PM 75.2 °F - 69.8 °F 83% 29.95 in 6.2 mi SE 21.9 mph - N/A   Mostly Cloudy
1:00 PM 77 °F - 69 °F 70% 29.95 in - SE 20.7 mph - -  
1:00 PM 77.0 °F - 69.8 °F 78% 29.95 in 6.2 mi SE 20.7 mph - N/A   Mostly Cloudy
1:30 PM 80.6 °F 83.2 °F 68.0 °F 65% 29.92 in 6.2 mi SE 20.7 mph - N/A   Mostly Cloudy
2:00 PM 80.6 °F 82.7 °F 66.2 °F 61% 29.92 in 6.2 mi SE 21.9 mph - N/A   Mostly Cloudy
2:30 PM 80.6 °F 82.7 °F 66.2 °F 61% 29.92 in 6.2 mi SE 23.0 mph - N/A   Mostly Cloudy
3:00 PM 80.6 °F 82.7 °F 66.2 °F 61% 29.92 in 6.2 mi SE 23.0 mph - N/A   Mostly Cloudy
3:30 PM 80.6 °F 82.7 °F 66.2 °F 61% 29.89 in 6.2 mi SE 24.2 mph - N/A   Mostly Cloudy
4:00 PM 82 °F - 65 °F 48% 29.91 in - SE 21.9 mph - -  
4:00 PM 82.4 °F 84.6 °F 66.2 °F 58% 29.89 in 6.2 mi SE 21.9 mph - N/A   Mostly Cloudy
4:30 PM 80.6 °F 82.3 °F 64.4 °F 58% 29.89 in 6.2 mi SE 19.6 mph - N/A   Mostly Cloudy
5:00 PM 78.8 °F - 64.4 °F 61% 29.92 in 6.2 mi ESE 19.6 mph - N/A   Mostly Cloudy
5:30 PM 78.8 °F - 64.4 °F 61% 29.92 in 6.2 mi SE 20.7 mph - N/A   Scattered Clouds
6:00 PM 77 °F - 65 °F 58% 29.94 in - SE 21.9 mph - -  
6:00 PM 77.0 °F - 64.4 °F 65% 29.92 in 6.2 mi SE 21.9 mph - N/A   Scattered Clouds
6:30 PM 75.2 °F - 64.4 °F 69% 29.95 in 6.2 mi SE 19.6 mph - N/A   Scattered Clouds
7:00 PM 75 °F - 65 °F 63% 29.97 in - SE 19.6 mph - -  
7:00 PM 75.2 °F - 64.4 °F 69% 29.95 in 6.2 mi SE 19.6 mph - N/A   Partly Cloudy
7:30 PM 75.2 °F - 62.6 °F 65% 29.95 in 6.2 mi SSE 18.4 mph - N/A   Partly Cloudy
8:00 PM 73.4 °F - 62.6 °F 69% 29.98 in 6.2 mi South 6.9 mph - N/A   Partly Cloudy
8:30 PM 71.6 °F - 64.4 °F 78% 29.98 in 6.2 mi South 5.8 mph - N/A   Partly Cloudy
9:00 PM 72 °F - 62 °F 64% 30.00 in - South 8.1 mph - -  
9:00 PM 71.6 °F - 62.6 °F 73% 29.98 in 6.2 mi South 8.1 mph - N/A   Partly Cloudy
9:30 PM 73.4 °F - 62.6 °F 69% 30.01 in 6.2 mi South 8.1 mph - N/A   Partly Cloudy
10:00 PM 72 °F - 63 °F 65% 30.01 in - South 10.4 mph - -  
10:00 PM 71.6 °F - 62.6 °F 73% 29.98 in 6.2 mi South 10.4 mph - N/A   Scattered Clouds
10:30 PM 71.6 °F - 62.6 °F 73% 30.01 in 6.2 mi South 10.4 mph - N/A   Partly Cloudy
11:00 PM 71.6 °F - 62.6 °F 73% 29.98 in 6.2 mi SSE 9.2 mph - N/A   Partly Cloudy
11:30 PM 71.6 °F - 62.6 °F 73% 29.98 in 6.2 mi South 11.5 mph - N/A   Partly Cloudy